When you browse on this site, cookies collect data to enhance your experience and personalize the content and advertising you see.
Visit our Privacy Policy to learn more. By continuing to use the site, you agree to this use of cookies and data.
  • In Spain
  • List of Countries
  • For 7 days
  • Water Temperature
  • Satellite Maps
  • Weather Map
  • Weather Widgets
  • user-avatar
    Login

    Hourly Weather Taraz

    Today, 25 June, Tuesday

    Time Temperature Precipitation Wind Pressure Humidity
    00:00 +21°C° 0 mm 3 mps 706 mmHg 29%
    01:00 +20°C° 0 mm 2 mps 706 mmHg 32%
    02:00 +19°C° 0 mm 2 mps 705 mmHg 36%
    03:00 +20°C° 0 mm 1 mps 705 mmHg 37%
    04:00 +19°C° 0 mm 1 mps 705 mmHg 39%
    05:00 +19°C° 0 mm 1 mps 705 mmHg 42%
    06:00 +22°C° 0 mm 1 mps 706 mmHg 36%
    07:00 +23°C° 0 mm 0 mps 706 mmHg 30%
    08:00 +26°C° 0 mm 0 mps 707 mmHg 24%
    09:00 +30°C° 0 mm 1 mps 707 mmHg 22%
    10:00 +33°C° 0 mm 3 mps 707 mmHg 19%
    11:00 +35°C° 0 mm 4 mps 707 mmHg 16%
    12:00 +36°C° 0 mm 4 mps 707 mmHg 15%
    13:00 +37°C° 0 mm 5 mps 707 mmHg 13%
    14:00 +37°C° 0 mm 5 mps 707 mmHg 12%
    15:00 +37°C° 0 mm 5 mps 706 mmHg 12%
    16:00 +37°C° 0 mm 5 mps 706 mmHg 12%
    17:00 +38°C° 0 mm 6 mps 706 mmHg 12%
    18:00 +34°C° 0 mm 5 mps 706 mmHg 14%
    19:00 +30°C° 0 mm 4 mps 705 mmHg 15%
    20:00 +28°C° 0 mm 3 mps 705 mmHg 17%
    21:00 +26°C° 0 mm 3 mps 705 mmHg 20%
    22:00 +25°C° 0 mm 2 mps 704 mmHg 23%
    23:00 +23°C° 0 mm 2 mps 704 mmHg 26%

    Tomorrow, 26 June, Wednesday

    Time Temperature Precipitation Wind Pressure Humidity
    00:00 +23°C° 0 mm 2 mps 704 mmHg 28%
    01:00 +21°C° 0 mm 2 mps 703 mmHg 29%
    02:00 +21°C° 0 mm 1 mps 703 mmHg 30%
    03:00 +21°C° 0 mm 1 mps 703 mmHg 32%
    04:00 +21°C° 0 mm 1 mps 703 mmHg 33%
    05:00 +20°C° 0 mm 1 mps 703 mmHg 35%
    06:00 +24°C° 0 mm 1 mps 703 mmHg 30%
    07:00 +28°C° 0 mm 2 mps 704 mmHg 25%
    08:00 +31°C° 0 mm 2 mps 705 mmHg 20%
    09:00 +34°C° 0 mm 3 mps 704 mmHg 18%
    10:00 +35°C° 0 mm 4 mps 704 mmHg 16%
    11:00 +37°C° 0 mm 4 mps 704 mmHg 14%
    12:00 +39°C° 0 mm 5 mps 704 mmHg 14%
    13:00 +39°C° 0 mm 5 mps 704 mmHg 13%
    14:00 +40°C° 0 mm 6 mps 704 mmHg 12%
    15:00 +39°C° 0 mm 6 mps 703 mmHg 13%
    16:00 +39°C° 0 mm 6 mps 703 mmHg 13%
    17:00 +39°C° 0 mm 6 mps 703 mmHg 13%
    18:00 +35°C° 0 mm 5 mps 702 mmHg 16%
    19:00 +32°C° 0 mm 4 mps 702 mmHg 19%
    20:00 +28°C° 0 mm 2 mps 702 mmHg 22%
    21:00 +27°C° 0 mm 2 mps 701 mmHg 24%
    22:00 +26°C° 0 mm 2 mps 701 mmHg 26%
    23:00 +25°C° 0 mm 2 mps 701 mmHg 29%

    Day after tomorrow, 27 June, Thursday

    Time Temperature Precipitation Wind Pressure Humidity
    00:00 +24°C° 0 mm 2 mps 701 mmHg 30%
    01:00 +24°C° 0 mm 2 mps 700 mmHg 32%
    02:00 +23°C° 0 mm 2 mps 700 mmHg 33%
    03:00 +23°C° 0 mm 2 mps 700 mmHg 33%
    04:00 +23°C° 0 mm 2 mps 700 mmHg 33%
    05:00 +23°C° 0 mm 2 mps 700 mmHg 34%
    06:00 +26°C° 0 mm 2 mps 701 mmHg 29%
    07:00 +30°C° 0 mm 2 mps 701 mmHg 24%
    08:00 +34°C° 0 mm 2 mps 702 mmHg 19%
    09:00 +35°C° 0 mm 2 mps 702 mmHg 17%
    10:00 +37°C° 0 mm 2 mps 702 mmHg 15%
    11:00 +38°C° 0 mm 2 mps 701 mmHg 13%
    12:00 +39°C° 0 mm 3 mps 701 mmHg 12%
    13:00 +40°C° 0 mm 4 mps 701 mmHg 12%
    14:00 +41°C° 0 mm 5 mps 701 mmHg 11%
    15:00 +40°C° 0 mm 5 mps 701 mmHg 12%
    16:00 +40°C° 0 mm 6 mps 701 mmHg 13%
    17:00 +39°C° 0 mm 6 mps 701 mmHg 14%
    18:00 +35°C° 0.2 mm 6 mps 700 mmHg 20%
    19:00 +32°C° 0.2 mm 5 mps 700 mmHg 26%
    20:00 +29°C° 0.2 mm 5 mps 700 mmHg 32%
    21:00 +27°C° 0.1 mm 4 mps 700 mmHg 36%
    22:00 +26°C° 0.1 mm 4 mps 700 mmHg 40%
    23:00 +24°C° 0.1 mm 3 mps 700 mmHg 43%

    28 June, Friday

    Time Temperature Precipitation Wind Pressure Humidity
    00:00 +24°C° 0.1 mm 3 mps 700 mmHg 44%
    01:00 +24°C° 0.1 mm 2 mps 700 mmHg 44%
    02:00 +23°C° 0.1 mm 2 mps 700 mmHg 44%
    03:00 +23°C° 0 mm 2 mps 700 mmHg 44%
    04:00 +23°C° 0 mm 2 mps 700 mmHg 45%
    05:00 +21°C° 0 mm 2 mps 700 mmHg 45%
    06:00 +25°C° 0 mm 2 mps 700 mmHg 39%
    07:00 +27°C° 0 mm 2 mps 700 mmHg 33%
    08:00 +30°C° 0 mm 2 mps 701 mmHg 28%
    09:00 +31°C° 0 mm 2 mps 701 mmHg 25%
    10:00 +32°C° 0 mm 2 mps 701 mmHg 23%
    11:00 +35°C° 0 mm 2 mps 701 mmHg 20%
    12:00 +36°C° 0 mm 2 mps 701 mmHg 19%
    13:00 +36°C° 0 mm 2 mps 701 mmHg 18%
    14:00 +37°C° 0 mm 3 mps 700 mmHg 17%
    15:00 +36°C° 0 mm 4 mps 700 mmHg 21%
    16:00 +34°C° 0 mm 6 mps 700 mmHg 24%
    17:00 +33°C° 0 mm 7 mps 700 mmHg 28%
    18:00 +29°C° 0.1 mm 6 mps 700 mmHg 37%
    19:00 +26°C° 0.1 mm 5 mps 700 mmHg 45%
    20:00 +24°C° 0.1 mm 3 mps 700 mmHg 54%
    21:00 +24°C° 0 mm 3 mps 701 mmHg 53%
    22:00 +24°C° 0 mm 3 mps 701 mmHg 53%
    23:00 +22°C° 0 mm 3 mps 701 mmHg 53%

    29 June, Saturday

    Time Temperature Precipitation Wind Pressure Humidity
    00:00 +24°C° 0 mm 3 mps 701 mmHg 50%
    01:00 +24°C° 0 mm 3 mps 701 mmHg 47%
    02:00 +25°C° 0 mm 3 mps 701 mmHg 44%
    03:00 +25°C° 0 mm 4 mps 701 mmHg 43%
    04:00 +25°C° 0 mm 4 mps 701 mmHg 42%
    05:00 +26°C° 0 mm 4 mps 701 mmHg 41%
    06:00 +27°C° 0 mm 4 mps 701 mmHg 38%
    07:00 +29°C° 0 mm 4 mps 701 mmHg 34%
    08:00 +30°C° 0 mm 4 mps 702 mmHg 31%
    09:00 +33°C° 0 mm 4 mps 702 mmHg 28%
    10:00 +34°C° 0 mm 4 mps 702 mmHg 25%
    11:00 +36°C° 0 mm 4 mps 702 mmHg 23%
    12:00 +36°C° 0 mm 4 mps 702 mmHg 21%
    13:00 +37°C° 0 mm 4 mps 701 mmHg 20%
    14:00 +38°C° 0 mm 4 mps 701 mmHg 19%
    15:00 +37°C° 0.1 mm 5 mps 701 mmHg 21%
    16:00 +36°C° 0.1 mm 5 mps 701 mmHg 23%
    17:00 +35°C° 0.1 mm 5 mps 701 mmHg 25%
    18:00 +32°C° 0.6 mm 4 mps 701 mmHg 33%
    19:00 +28°C° 0.6 mm 4 mps 700 mmHg 42%
    20:00 +25°C° 0.6 mm 4 mps 700 mmHg 51%
    21:00 +25°C° 0.2 mm 3 mps 700 mmHg 54%
    22:00 +24°C° 0.2 mm 3 mps 701 mmHg 56%
    23:00 +24°C° 0.2 mm 2 mps 701 mmHg 58%

    30 June, Sunday

    Time Temperature Precipitation Wind Pressure Humidity
    00:00 +23°C° 0 mm 2 mps 700 mmHg 60%
    01:00 +23°C° 0 mm 2 mps 700 mmHg 63%
    02:00 +22°C° 0 mm 1 mps 700 mmHg 65%
    03:00 +22°C° 0 mm 1 mps 700 mmHg 65%
    04:00 +21°C° 0 mm 1 mps 700 mmHg 65%
    05:00 +21°C° 0 mm 1 mps 700 mmHg 65%
    06:00 +24°C° 0 mm 1 mps 700 mmHg 57%
    07:00 +26°C° 0 mm 1 mps 701 mmHg 48%
    08:00 +29°C° 0 mm 1 mps 701 mmHg 40%
    09:00 +31°C° 0 mm 2 mps 701 mmHg 35%
    10:00 +34°C° 0 mm 3 mps 701 mmHg 29%
    11:00 +36°C° 0 mm 3 mps 701 mmHg 24%
    12:00 +37°C° 0 mm 3 mps 701 mmHg 22%
    13:00 +38°C° 0 mm 3 mps 701 mmHg 19%
    14:00 +39°C° 0 mm 3 mps 701 mmHg 17%
    15:00 +40°C° 0 mm 4 mps 701 mmHg 17%
    16:00 +40°C° 0 mm 4 mps 701 mmHg 16%
    17:00 +40°C° 0 mm 5 mps 701 mmHg 16%
    18:00 +37°C° 0 mm 5 mps 701 mmHg 19%
    19:00 +35°C° 0 mm 5 mps 701 mmHg 22%
    20:00 +33°C° 0 mm 5 mps 700 mmHg 24%
    21:00 +32°C° 0 mm 5 mps 700 mmHg 27%
    22:00 +29°C° 0 mm 4 mps 701 mmHg 30%
    23:00 +28°C° 0 mm 4 mps 701 mmHg 33%
    Show more